Weather History for Fallon NAS, NV

Change the Weather History Date:

Monday, July 22, 2013

  Actual Average Record
Temperature  
Mean Temperature 85 °F -  
Max Temperature 105 °F 92 °F 107 °F (2003)
Min Temperature 68 °F 55 °F 36 °F (1987)
Cooling Degree Days 20    
Growing Degree Days 35 (Base 50)    
Moisture  
Dew Point 38 °F    
Average Humidity 20    
Maximum Humidity 38    
Minimum Humidity 7    
Precipitation  
Precipitation 0.00 in - - ()
Sea Level Pressure  
Sea Level Pressure 29.89 in    
Wind  
Wind Speed 8 mph (SW)    
Max Wind Speed 24 mph    
Max Gust Speed 32 mph    
Visibility 9 miles    
Events      
Averages and records for this station are not official NWS values.
T = Trace of Precipitation, MM = Missing Value Source: NWS Daily Summary

Daily Weather History Graph

Daily Weather History Graph

Search for Another Location

Airport:

Trip Planner

Search our weather history database for the weather conditions in past years. The results will help you decide how hot, cold, wet, or windy it might be!

Date:

Astronomy

Jul. 22, 2013 Rise Set
Actual Time 5:46 AM PDT 8:15 PM PDT
Civil Twilight 5:15 AM PDT 8:46 PM PDT
Nautical Twilight 4:36 AM PDT 9:24 PM PDT
Astronomical Twilight 3:54 AM PDT 10:07 PM PDT
Moon 8:06 PM PDT (7/22) 5:47 AM PDT (7/22)
Length of Visible Light 15h 31m
Length of Day
14h 29m
Full, 100% of the Moon is Illuminated
Jul 22
Full
Jul 29
Last Quarter
Aug 6
New
Aug 14
First Quarter
Aug 20
Full

Hourly Weather History & Observations

Time (PDT) Temp. Dew Point Humidity Pressure Visibility Wind Dir Wind Speed Gust Speed Precip Events Conditions
12:56 AM 77.0 °F 43.0 °F 30% 29.85 in 10.0 mi South 6.9 mph - N/A   Clear
1:56 AM 75.9 °F 39.9 °F 27% 29.85 in 10.0 mi WSW 6.9 mph - N/A   Clear
2:56 AM 71.1 °F 41.0 °F 34% 29.86 in 10.0 mi South 8.1 mph - N/A   Clear
3:56 AM 69.1 °F 39.9 °F 35% 29.87 in 10.0 mi SSW 5.8 mph - N/A   Clear
4:56 AM 68.0 °F 41.0 °F 37% 29.88 in 10.0 mi South 6.9 mph - N/A   Clear
5:56 AM 68.0 °F 41.0 °F 37% 29.90 in 10.0 mi South 5.8 mph - N/A   Clear
6:15 AM 68.0 °F 41.0 °F 37% 29.98 in 10.0 mi South 6.9 mph - N/A   Mostly Cloudy
6:56 AM 70.0 °F 43.0 °F 38% 29.91 in 10.0 mi South 4.6 mph - N/A   Mostly Cloudy
7:56 AM 82.9 °F 42.1 °F 24% 29.93 in 10.0 mi SW 5.8 mph - N/A   Mostly Cloudy
8:56 AM 87.1 °F 43.0 °F 21% 29.94 in 10.0 mi West 5.8 mph - N/A   Mostly Cloudy
9:56 AM 90.0 °F 43.0 °F 19% 29.94 in 10.0 mi Variable 3.5 mph - N/A   Mostly Cloudy
10:56 AM 93.9 °F 41.0 °F 16% 29.93 in 10.0 mi Variable 5.8 mph - N/A   Mostly Cloudy
11:56 AM 97.0 °F 39.9 °F 14% 29.92 in 10.0 mi North 8.1 mph - N/A   Mostly Cloudy
12:56 PM 98.1 °F 37.9 °F 12% 29.90 in 10.0 mi Variable 6.9 mph - N/A   Overcast
1:56 PM 100.9 °F 32.0 °F 9% 29.88 in 10.0 mi NNE 9.2 mph - N/A   Overcast
2:56 PM 102.9 °F 28.9 °F 7% 29.86 in 10.0 mi Variable 5.8 mph - N/A   Mostly Cloudy
3:56 PM 102.0 °F 28.0 °F 7% 29.85 in 10.0 mi North 5.8 mph - N/A   Overcast
4:56 PM 102.9 °F 26.1 °F 7% 29.83 in 10.0 mi North 5.8 mph - N/A   Overcast
5:56 PM 102.9 °F 26.1 °F 7% 29.81 in 10.0 mi North 4.6 mph - N/A   Overcast
6:56 PM 100.9 °F 26.1 °F 7% 29.82 in 10.0 mi Calm Calm - N/A   Overcast
7:56 PM 96.1 °F 30.9 °F 10% 29.83 in 10.0 mi West 8.1 mph - N/A   Overcast
8:56 PM 91.9 °F 39.0 °F 16% 29.88 in 6.0 mi South 18.4 mph 32.2 mph N/A   Haze
9:13 PM 91.4 °F 37.4 °F 15% 29.96 in 2.0 mi South 24.2 mph 29.9 mph N/A   Widespread Dust
9:33 PM 89.6 °F 44.6 °F 21% 29.97 in 6.0 mi SSW 19.6 mph 31.1 mph N/A   Haze
9:56 PM 88.0 °F 43.0 °F 21% 29.90 in 9.0 mi South 21.9 mph 28.8 mph N/A   Mostly Cloudy
10:56 PM 87.1 °F 41.0 °F 20% 29.91 in 10.0 mi WSW 13.8 mph - N/A   Clear
11:56 PM 87.1 °F 43.0 °F 21% 29.91 in 10.0 mi West 11.5 mph 19.6 mph N/A   Clear